This is the latest recevied weather packets stored in our database for station/object KO6HRZ. If no packets are shown the sender has not sent any weather packets the latest 10 day(s).
| Time | Temp. | Humidity | Pressure | Rain* | Wind** | Luminosity | Snow |
|---|---|---|---|---|---|---|---|
| 1777358612 | 12.78° C | 76% | 1019.2 hPa | 0 mm | - | 0 W/m² | - |
| 1777358007 | 12.78° C | 75% | 1019 hPa | 0 mm | - | 0 W/m² | - |
| 1777357407 | 12.78° C | 74% | 1018.8 hPa | 0 mm | - | 0 W/m² | - |
| 1777356807 | 13.33° C | 73% | 1018.8 hPa | 0 mm | - | 0 W/m² | - |
| 1777356207 | 13.33° C | 72% | 1018.9 hPa | 0 mm | - | 0 W/m² | - |
| 1777355606 | 13.33° C | 71% | 1019 hPa | 0 mm | - | 0 W/m² | - |
| 1777355006 | 13.89° C | 72% | 1018.9 hPa | 0 mm | - | 0 W/m² | - |
| 1777354403 | 13.89° C | 72% | 1018.8 hPa | 0 mm | - | 0 W/m² | - |
| 1777353802 | 13.89° C | 73% | 1018.8 hPa | 0 mm | - | 0 W/m² | - |
| 1777353199 | 13.89° C | 74% | 1018.7 hPa | 0 mm | - | 0 W/m² | - |
| 1777352595 | 13.89° C | 75% | 1018.6 hPa | 0 mm | - | 0 W/m² | - |
| 1777351995 | 14.44° C | 75% | 1018.6 hPa | 0 mm | - | 0 W/m² | - |
| 1777351389 | 14.44° C | 75% | 1018.6 hPa | 0 mm | - | 0 W/m² | - |
| 1777350787 | 14.44° C | 75% | 1018.6 hPa | 0 mm | - | 0 W/m² | - |
| 1777350186 | 14.44° C | 75% | 1018.5 hPa | 0 mm | - | 0 W/m² | - |
| 1777349585 | 14.44° C | 76% | 1018.4 hPa | 0 mm | - | 0 W/m² | - |
| 1777348980 | 15° C | 75% | 1018.2 hPa | 0 mm | - | 0 W/m² | - |
| 1777348381 | 15° C | 75% | 1018.1 hPa | 0 mm | - | 0 W/m² | - |
| 1777347777 | 15.56° C | 74% | 1018 hPa | 0 mm | - | 0 W/m² | - |
| 1777347174 | 15.56° C | 72% | 1017.9 hPa | 0 mm | - | 0 W/m² | - |
| 1777346573 | 15.56° C | 70% | 1017.6 hPa | 0 mm | - | 0 W/m² | - |
| 1777345973 | 16.11° C | 69% | 1017.5 hPa | 0 mm | - | 0 W/m² | - |
| 1777345372 | 16.67° C | 68% | 1017.4 hPa | 0 mm | - | 1 W/m² | - |
| 1777344771 | 16.67° C | 67% | 1017.3 hPa | 0 mm | - | 3 W/m² | - |
| 1777344166 | 17.22° C | 64% | 1017.3 hPa | 0 mm | - | 8 W/m² | - |
* Rain latest hour (hover to see other rain measurements)
** Current wind speed in m/s (hover to see current wind gust speed)